Tracking 19177 objects as of 24-May-2018
HD Live streaming from Space Station
objects crossing your sky now

RADIATION SAT (5E 1)

Track RADIATION SAT (5E 1) now!
10-day predictions
RADIATION SAT (5E 1) is classified as:


NORAD ID: 671
Int'l Code: 1963-038C
Perigee: 1,067.7 km
Apogee: 1,129.5 km
Inclination: 90.1 °
Period: 107.1 minutes
Semi major axis: 7469 km
RCS: 1.713 m2 (large)
Launch date: September 28, 1963
Source: United States (US)
Launch site: AIR FORCE WESTERN TEST RANGE (AFWTR)
aabbcc
Your satellite tracking list
Your tracking list is empty




NASA's NSSDC Master Catalog

Two Line Element Set (TLE):
1   671U 63038C   18143.47612191 +.00000039 +00000-0 +50625-4 0  9996
2   671 090.0639 327.4721 0041372 148.5267 268.6462 13.44804533679077
Source of the keplerian elements: AFSPC